TimeEST,TemperatureF,Dew PointF,Humidity,Sea Level PressureIn,VisibilityMPH,Wind Direction,Wind SpeedMPH,Gust SpeedMPH,PrecipitationIn,Events,Conditions,WindDirDegrees,DateUTC
12:53 AM,71.1,66.0,84,30.01,10.0,SW,8.1,-,N/A,,Mostly Cloudy,220,2012-12-21 05:53:00
1:53 AM,70.0,64.9,84,29.98,10.0,SSW,8.1,-,N/A,,Scattered Clouds,210,2012-12-21 06:53:00
2:53 AM,71.1,66.0,84,29.96,10.0,SSW,9.2,-,N/A,,Scattered Clouds,210,2012-12-21 07:53:00
3:53 AM,71.1,66.0,84,29.95,10.0,SW,9.2,-,N/A,,Scattered Clouds,220,2012-12-21 08:53:00
4:53 AM,71.1,66.9,87,29.94,10.0,SW,10.4,-,N/A,,Overcast,230,2012-12-21 09:53:00
5:44 AM,71.6,66.2,83,29.96,10.0,West,13.8,-,0.00,Rain,Light Rain,260,2012-12-21 10:44:00
5:53 AM,72.0,66.9,84,29.96,10.0,WSW,18.4,21.9,0.00,Rain,Light Rain,250,2012-12-21 10:53:00
6:02 AM,71.6,66.2,83,29.96,10.0,West,18.4,-,0.00,Rain,Light Rain,270,2012-12-21 11:02:00
6:32 AM,66.2,64.4,94,29.99,6.0,WNW,15.0,21.9,0.00,Rain,Light Rain,300,2012-12-21 11:32:00
6:53 AM,66.0,62.1,87,30.00,8.0,WNW,15.0,24.2,0.00,Rain,Light Rain,300,2012-12-21 11:53:00
7:32 AM,64.4,59.0,83,30.01,8.0,WNW,21.9,27.6,0.00,,Overcast,300,2012-12-21 12:32:00
7:47 AM,64.4,55.4,73,30.03,8.0,NW,20.7,28.8,0.00,,Overcast,310,2012-12-21 12:47:00
7:53 AM,63.0,54.0,72,30.03,8.0,NW,20.7,-,0.00,,Mostly Cloudy,310,2012-12-21 12:53:00
8:53 AM,63.0,52.0,67,30.06,10.0,NW,15.0,-,N/A,,Mostly Cloudy,310,2012-12-21 13:53:00
9:53 AM,63.0,46.0,54,30.09,10.0,NW,18.4,29.9,N/A,,Mostly Cloudy,320,2012-12-21 14:53:00
10:53 AM,63.0,39.0,41,30.10,10.0,NNW,26.5,33.4,N/A,,Mostly Cloudy,330,2012-12-21 15:53:00
11:53 AM,63.0,36.0,37,30.09,10.0,NW,23.0,28.8,N/A,,Mostly Cloudy,320,2012-12-21 16:53:00
12:53 PM,64.0,35.1,34,30.06,10.0,NW,18.4,25.3,N/A,,Mostly Cloudy,310,2012-12-21 17:53:00
1:53 PM,66.9,34.0,30,30.04,10.0,NW,20.7,-,N/A,,Mostly Cloudy,320,2012-12-21 18:53:00
2:53 PM,66.0,32.0,28,30.04,10.0,WNW,20.7,24.2,N/A,,Scattered Clouds,290,2012-12-21 19:53:00
3:53 PM,64.9,30.9,28,30.05,10.0,NW,17.3,-,N/A,,Scattered Clouds,310,2012-12-21 20:53:00
4:53 PM,64.0,34.0,33,30.06,10.0,NW,13.8,21.9,N/A,,Scattered Clouds,310,2012-12-21 21:53:00
5:53 PM,59.0,35.1,41,30.08,10.0,WNW,6.9,-,N/A,,Partly Cloudy,290,2012-12-21 22:53:00
6:53 PM,57.0,37.0,47,30.09,10.0,WNW,8.1,-,N/A,,Partly Cloudy,300,2012-12-21 23:53:00
7:53 PM,57.0,37.0,47,30.11,10.0,NW,11.5,-,N/A,,Partly Cloudy,310,2012-12-22 00:53:00
8:53 PM,55.9,33.1,42,30.14,10.0,NW,12.7,-,N/A,,Clear,310,2012-12-22 01:53:00
9:53 PM,53.1,34.0,48,30.15,10.0,NW,13.8,21.9,N/A,,Clear,310,2012-12-22 02:53:00
10:53 PM,51.1,35.1,54,30.16,10.0,NW,12.7,20.7,N/A,,Clear,310,2012-12-22 03:53:00
11:53 PM,48.9,35.1,59,30.17,10.0,NW,15.0,-,N/A,,Clear,320,2012-12-22 04:53:00